Tracking 30918 objects as of 3-Jul-2025
HD Live streaming from Space Station
objects crossing your sky now

OPS 6911 (VELA 10)

Track OPS 6911 (VELA 10) now!
OPS 6911 (VELA 10) is classified as:


NORAD ID: 3955
Int'l Code: 1969-046E
Perigee: 13,579.0 km
Apogee: 209,778.2 km
Inclination: 59.1 °
Period: 6,727.5 minutes
Semi major axis: 118049 km
RCS: 0.31 m2 (medium)
Launch date: May 23, 1969
Source: United States (US)
Launch site: AIR FORCE EASTERN TEST RANGE (AFETR)
Your satellite tracking list
COSMOS 2213
Track 1 satellite(s)




NASA's NSSDC Master Catalog

Two Line Element Set (TLE):
1 03955U 69046E   25159.95771459  .00000596  00000-0  00000-0 0  9996
2 03955  59.1313  67.5106 8310031 137.7510   1.0869  0.21404549  6213
Source of the keplerian elements: AFSPC